| time (UTC) | temp F | wind direction | speed knots | gust knots | rain 1hr in | rain 24hr in | rain mn in | humidity % | barometer mb |
| 20260507003004 | 53 | 59 | 3.5 | 7.8 | 0.00 | 0.00 | 0.00 | 64 | 1010.3 |
| 20260507002504 | 53 | 55 | 3.5 | 7.0 | 0.00 | 0.00 | 0.00 | 63 | 1010.2 |
| 20260507002004 | 54 | 50 | 4.3 | 9.6 | 0.00 | 0.00 | 0.00 | 62 | 1010.2 |
| 20260507001525 | 54 | 51 | 4.3 | 9.6 | 0.00 | 0.00 | 0.00 | 61 | 1010.2 |
| 20260507001004 | 54 | 58 | 4.3 | 9.6 | 0.00 | 0.00 | 0.00 | 60 | 1010.2 |
| 20260507000505 | 54 | 56 | 4.3 | 9.6 | 0.00 | 0.00 | 0.00 | 60 | 1010.6 |
| 20260507000004 | 54 | 44 | 3.5 | 7.8 | 0.00 | 0.00 | 0.00 | 59 | 1010.0 |
| 20260506235504 | 54 | 39 | 3.5 | 7.0 | 0.00 | 0.00 | 0.00 | 58 | 1010.1 |
| 20260506235004 | 55 | 35 | 3.5 | 7.0 | 0.00 | 0.00 | 0.00 | 58 | 1009.8 |
| 20260506234504 | 55 | 29 | 3.5 | 7.0 | 0.00 | 0.00 | 0.00 | 57 | 1009.9 |
| 20260506234004 | 55 | 30 | 3.5 | 7.0 | 0.00 | 0.00 | 0.00 | 57 | 1010.0 |
| 20260506233504 | 55 | 33 | 3.5 | 7.0 | 0.00 | 0.00 | 0.00 | 56 | 1010.0 |
| 20260506233004 | 56 | 36 | 3.5 | 7.8 | 0.00 | 0.00 | 0.00 | 55 | 1009.9 |
| 20260506232504 | 56 | 34 | 4.3 | 7.8 | 0.00 | 0.00 | 0.00 | 55 | 1009.9 |
| 20260506232004 | 56 | 27 | 4.3 | 7.0 | 0.00 | 0.00 | 0.00 | 54 | 1009.7 |
| 20260506231525 | 56 | 27 | 3.5 | 7.0 | 0.00 | 0.00 | 0.00 | 53 | 1009.7 |
| 20260506231004 | 56 | 28 | 3.5 | 7.0 | 0.00 | 0.00 | 0.00 | 53 | 1009.7 |
| 20260506230504 | 57 | 30 | 3.5 | 6.1 | 0.00 | 0.00 | 0.00 | 52 | 1009.8 |
| 20260506230004 | 57 | 31 | 3.5 | 7.0 | 0.00 | 0.00 | 0.00 | 50 | 1009.8 |
| 20260506225504 | 57 | 32 | 3.5 | 7.0 | 0.00 | 0.00 | 0.00 | 49 | 1009.7 |
| 20260506225004 | 58 | 38 | 2.6 | 7.0 | 0.00 | 0.00 | 0.00 | 47 | 1009.8 |
| 20260506224504 | 58 | 37 | 2.6 | 5.2 | 0.00 | 0.00 | 0.00 | 46 | 1009.9 |
| 20260506224004 | 58 | 44 | 2.6 | 5.2 | 0.00 | 0.00 | 0.00 | 46 | 1009.8 |
| 20260506223504 | 58 | 49 | 2.6 | 5.2 | 0.00 | 0.00 | 0.00 | 46 | 1009.6 |
| 20260506223004 | 58 | 49 | 2.6 | 5.2 | 0.00 | 0.00 | 0.00 | 44 | 1009.8 |
| 20260506222525 | 59 | 53 | 2.6 | 5.2 | 0.00 | 0.00 | 0.00 | 42 | 1009.8 |
| 20260506222025 | 59 | 50 | 2.6 | 5.2 | 0.00 | 0.00 | 0.00 | 42 | 1009.8 |
| 20260506221504 | 59 | 47 | 2.6 | 6.1 | 0.00 | 0.00 | 0.00 | 42 | 1009.8 |
| 20260506221004 | 59 | 47 | 1.7 | 3.5 | 0.00 | 0.00 | 0.00 | 42 | 1009.6 |
| 20260506220504 | 59 | 48 | 1.7 | 3.5 | 0.00 | 0.00 | 0.00 | 42 | 1009.6 |
| 20260506220004 | 59 | 50 | 1.7 | 3.5 | 0.00 | 0.00 | 0.00 | 41 | 1009.9 |
| 20260506215504 | 59 | 54 | 2.6 | 3.5 | 0.00 | 0.00 | 0.00 | 41 | 1010.0 |
| 20260506215004 | 59 | 51 | 1.7 | 3.5 | 0.00 | 0.00 | 0.00 | 41 | 1009.7 |
| 20260506214504 | 59 | 49 | 1.7 | 3.5 | 0.00 | 0.00 | 0.00 | 40 | 1010.1 |
| 20260506214004 | 60 | 48 | 0.9 | 2.6 | 0.00 | 0.00 | 0.00 | 41 | 1009.7 |
| 20260506213504 | 60 | 44 | 0.9 | 2.6 | 0.00 | 0.00 | 0.00 | 41 | 1009.7 |
| 20260506213004 | 60 | 48 | 0.9 | 1.7 | 0.00 | 0.00 | 0.00 | 41 | 1009.8 |
| 20260506212525 | 60 | 47 | 0.9 | 1.7 | 0.00 | 0.00 | 0.00 | 40 | 1009.8 |
| 20260506212004 | 60 | 41 | 0.9 | 2.6 | 0.00 | 0.00 | 0.00 | 40 | 1009.8 |
| 20260506211504 | 60 | 43 | 1.7 | 2.6 | 0.00 | 0.00 | 0.00 | 39 | 1009.8 |
| 20260506211004 | 61 | 53 | 1.7 | 2.6 | 0.00 | 0.00 | 0.00 | 38 | 1009.9 |
| 20260506210505 | 61 | 59 | 1.7 | 2.6 | 0.00 | 0.00 | 0.00 | 38 | 1009.8 |
| 20260506210004 | 62 | 60 | 0.9 | 1.7 | 0.00 | 0.00 | 0.00 | 37 | 1010.0 |
| 20260506205525 | 62 | 60 | 0.9 | 1.7 | 0.00 | 0.00 | 0.00 | 37 | 1009.8 |
| 20260506205004 | 62 | 67 | 0.9 | 1.7 | 0.00 | 0.00 | 0.00 | 37 | 1009.6 |
| 20260506204504 | 62 | 71 | 0.9 | 1.7 | 0.00 | 0.00 | 0.00 | 36 | 1009.7 |
| 20260506204004 | 62 | 70 | 0.9 | 1.7 | 0.00 | 0.00 | 0.00 | 37 | 1009.9 |
| 20260506203504 | 62 | 73 | 0.9 | 1.7 | 0.00 | 0.00 | 0.00 | 37 | 1009.8 |
| 20260506203004 | 62 | 77 | 0.9 | 1.7 | 0.00 | 0.00 | 0.00 | 37 | 1009.6 |
| 20260506202504 | 62 | 78 | 0.9 | 1.7 | 0.00 | 0.00 | 0.00 | 38 | 1009.7 |
| 20260506202004 | 62 | 81 | 0.9 | 0.9 | 0.00 | 0.00 | 0.00 | 38 | 1009.7 |
| 20260506201504 | 62 | 76 | 0.9 | 1.7 | 0.00 | 0.00 | 0.00 | 39 | 1009.7 |
| 20260506201025 | 62 | 72 | 0.9 | 1.7 | 0.00 | 0.00 | 0.00 | 38 | 1009.6 |
| 20260506200504 | 62 | 71 | 0.9 | 1.7 | 0.00 | 0.00 | 0.00 | 37 | 1009.5 |
| 20260506200004 | 63 | 72 | 0.9 | 1.7 | 0.00 | 0.00 | 0.00 | 37 | 1009.5 |
| 20260506195525 | 63 | 75 | 0.9 | 0.9 | 0.00 | 0.00 | 0.00 | 36 | 1009.7 |
| 20260506195004 | 63 | 76 | 0.9 | 1.7 | 0.00 | 0.00 | 0.00 | 37 | 1009.8 |
| 20260506194504 | 63 | 76 | 0.9 | 1.7 | 0.00 | 0.00 | 0.00 | 35 | 1009.7 |
| 20260506194004 | 63 | 86 | 0.0 | 1.7 | 0.00 | 0.00 | 0.00 | 35 | 1009.5 |
| 20260506193525 | 63 | 88 | 0.9 | 1.7 | 0.00 | 0.00 | 0.00 | 35 | 1009.5 |
| 20260506193025 | 63 | 81 | 0.9 | 1.7 | 0.00 | 0.00 | 0.00 | 34 | 1009.4 |
| 20260506192504 | 63 | 75 | 0.9 | 1.7 | 0.00 | 0.00 | 0.00 | 35 | 1009.2 |
| 20260506192004 | 63 | 89 | 0.0 | 0.9 | 0.00 | 0.00 | 0.00 | 35 | 1009.2 |
| 20260506191525 | 64 | 89 | 0.0 | 0.9 | 0.00 | 0.00 | 0.00 | 35 | 1009.6 |
| 20260506191004 | 64 | 94 | 0.0 | 0.9 | 0.00 | 0.00 | 0.00 | 35 | 1009.5 |
| 20260506190504 | 64 | 127 | 0.0 | 0.9 | 0.00 | 0.00 | 0.00 | 34 | 1009.2 |
| 20260506190025 | 64 | 142 | 0.0 | 0.9 | 0.00 | 0.00 | 0.00 | 34 | 1009.1 |
| 20260506185504 | 65 | 172 | 0.0 | 1.7 | 0.00 | 0.00 | 0.00 | 33 | 1009.4 |
| 20260506185004 | 66 | 218 | 0.9 | 1.7 | 0.00 | 0.00 | 0.00 | 33 | 1009.1 |
| 20260506184525 | 66 | 312 | 0.0 | 1.7 | 0.00 | 0.00 | 0.00 | 31 | 1009.4 |
| 20260506184004 | 67 | 236 | 0.0 | 2.6 | 0.00 | 0.00 | 0.00 | 31 | 1009.1 |
| 20260506183504 | 66 | 210 | 0.9 | 2.6 | 0.00 | 0.00 | 0.00 | 32 | 1009.2 |
| 20260506183005 | 66 | 183 | 0.9 | 2.6 | 0.00 | 0.00 | 0.00 | 32 | 1009.1 |
| 20260506182504 | 67 | 196 | 0.9 | 1.7 | 0.00 | 0.00 | 0.00 | 31 | 1009.2 |
| 20260506182004 | 67 | 180 | 0.9 | 1.7 | 0.00 | 0.00 | 0.00 | 31 | 1009.0 |
| 20260506181504 | 66 | 95 | 0.9 | 1.7 | 0.00 | 0.00 | 0.00 | 31 | 1009.4 |
| 20260506181004 | 66 | 11 | 0.9 | 3.5 | 0.00 | 0.00 | 0.00 | 32 | 1009.2 |
| 20260506180504 | 65 | 329 | 1.7 | 3.5 | 0.00 | 0.00 | 0.00 | 32 | 1009.1 |
| 20260506180005 | 66 | 335 | 0.9 | 3.5 | 0.00 | 0.00 | 0.00 | 32 | 1009.5 |
| 20260506175504 | 67 | 356 | 0.9 | 2.6 | 0.00 | 0.00 | 0.00 | 32 | 1009.2 |
| 20260506175004 | 67 | 329 | 0.9 | 2.6 | 0.00 | 0.00 | 0.00 | 31 | 1009.4 |
| 20260506174504 | 67 | 324 | 0.9 | 2.6 | 0.00 | 0.00 | 0.00 | 31 | 1009.5 |
| 20260506174004 | 67 | 293 | 0.9 | 2.6 | 0.00 | 0.00 | 0.00 | 31 | 1009.4 |
| 20260506173504 | 68 | 233 | 0.9 | 2.6 | 0.00 | 0.00 | 0.00 | 31 | 1009.4 |
| 20260506173004 | 68 | 218 | 0.9 | 2.6 | 0.00 | 0.00 | 0.00 | 30 | 1009.4 |
| 20260506172504 | 67 | 133 | 0.9 | 3.5 | 0.00 | 0.00 | 0.00 | 30 | 1009.4 |
| 20260506172004 | 66 | 101 | 1.7 | 5.2 | 0.00 | 0.00 | 0.00 | 33 | 1009.2 |
| 20260506171504 | 65 | 94 | 2.6 | 5.2 | 0.00 | 0.00 | 0.00 | 32 | 1009.5 |
| 20260506171004 | 66 | 94 | 1.7 | 3.5 | 0.00 | 0.00 | 0.00 | 32 | 1009.5 |
| 20260506170504 | 67 | 112 | 0.9 | 3.5 | 0.00 | 0.00 | 0.00 | 32 | 1009.6 |
| 20260506170004 | 69 | 139 | 0.9 | 1.7 | 0.00 | 0.00 | 0.00 | 31 | 1009.4 |
| 20260506165504 | 68 | 152 | 0.9 | 2.6 | 0.00 | 0.00 | 0.00 | 32 | 1009.5 |
| 20260506165004 | 67 | 165 | 0.9 | 2.6 | 0.00 | 0.00 | 0.00 | 31 | 1009.4 |
| 20260506164504 | 69 | 193 | 0.9 | 2.6 | 0.00 | 0.00 | 0.00 | 30 | 1009.7 |
| 20260506164004 | 67 | 13 | 0.9 | 2.6 | 0.00 | 0.00 | 0.00 | 31 | 1009.7 |
| 20260506163504 | 64 | 40 | 0.9 | 3.5 | 0.00 | 0.00 | 0.00 | 33 | 1010.0 |
| 20260506163004 | 64 | 75 | 1.7 | 3.5 | 0.00 | 0.00 | 0.00 | 34 | 1009.6 |
| 20260506162504 | 64 | 69 | 1.7 | 3.5 | 0.00 | 0.00 | 0.00 | 34 | 1009.8 |
| 20260506162004 | 65 | 55 | 1.7 | 5.2 | 0.00 | 0.00 | 0.00 | 34 | 1009.8 |
| 20260506161504 | 64 | 95 | 1.7 | 5.2 | 0.00 | 0.00 | 0.00 | 33 | 1009.8 |
| 20260506161025 | 65 | 158 | 0.9 | 3.5 | 0.00 | 0.00 | 0.00 | 34 | 1009.8 |
| 20260506160504 | 65 | 153 | 1.7 | 2.6 | 0.00 | 0.00 | 0.00 | 34 | 1009.8 |
| 20260506160004 | 65 | 80 | 2.6 | 6.1 | 0.00 | 0.00 | 0.00 | 33 | 1009.6 |
| 20260506155525 | 64 | 64 | 2.6 | 6.1 | 0.00 | 0.00 | 0.00 | 34 | 1009.9 |
| 20260506155004 | 67 | 27 | 1.7 | 5.2 | 0.00 | 0.00 | 0.00 | 33 | 1009.9 |
| 20260506154504 | 66 | 36 | 1.7 | 3.5 | 0.00 | 0.00 | 0.00 | 33 | 1009.8 |
| 20260506154004 | 67 | 308 | 0.9 | 3.5 | 0.00 | 0.00 | 0.00 | 33 | 1010.0 |
| 20260506153525 | 66 | 306 | 2.6 | 7.0 | 0.00 | 0.00 | 0.00 | 34 | 1009.9 |
| 20260506153004 | 64 | 332 | 2.6 | 7.0 | 0.00 | 0.00 | 0.00 | 34 | 1010.1 |
| 20260506152504 | 66 | 166 | 1.7 | 3.5 | 0.00 | 0.00 | 0.00 | 33 | 1010.0 |
| 20260506152004 | 65 | 253 | 1.7 | 3.5 | 0.00 | 0.00 | 0.00 | 34 | 1010.1 |
| 20260506151525 | 65 | 309 | 1.7 | 5.2 | 0.00 | 0.00 | 0.00 | 34 | 1010.1 |
| 20260506151004 | 64 | 343 | 2.6 | 7.0 | 0.00 | 0.00 | 0.00 | 35 | 1010.0 |
| 20260506150504 | 64 | 19 | 2.6 | 7.0 | 0.00 | 0.00 | 0.00 | 35 | 1010.1 |
| 20260506150004 | 65 | 51 | 1.7 | 7.0 | 0.00 | 0.00 | 0.00 | 35 | 1010.3 |
| 20260506145504 | 64 | 28 | 1.7 | 5.2 | 0.00 | 0.00 | 0.00 | 36 | 1010.3 |
| 20260506145004 | 64 | 43 | 1.7 | 5.2 | 0.00 | 0.00 | 0.00 | 37 | 1010.2 |
| 20260506144504 | 64 | 75 | 1.7 | 5.2 | 0.00 | 0.00 | 0.00 | 36 | 1010.5 |
| 20260506144004 | 65 | 162 | 1.7 | 7.0 | 0.00 | 0.00 | 0.00 | 35 | 1010.5 |
| 20260506143504 | 64 | 158 | 2.6 | 7.0 | 0.00 | 0.00 | 0.00 | 36 | 1010.5 |
| 20260506143004 | 65 | 147 | 3.5 | 8.7 | 0.00 | 0.00 | 0.00 | 36 | 1010.4 |
| 20260506142504 | 65 | 135 | 3.5 | 8.7 | 0.00 | 0.00 | 0.00 | 36 | 1010.5 |
| 20260506142004 | 65 | 48 | 2.6 | 6.1 | 0.00 | 0.00 | 0.00 | 36 | 1010.7 |
| 20260506141504 | 66 | 85 | 1.7 | 6.1 | 0.00 | 0.00 | 0.00 | 36 | 1010.7 |
| 20260506141004 | 66 | 126 | 2.6 | 6.1 | 0.00 | 0.00 | 0.00 | 35 | 1010.7 |
| 20260506140525 | 65 | 112 | 3.5 | 7.0 | 0.00 | 0.00 | 0.00 | 38 | 1010.8 |
| 20260506140004 | 64 | 88 | 3.5 | 7.0 | 0.00 | 0.00 | 0.00 | 37 | 1010.7 |
| 20260506135504 | 64 | 83 | 3.5 | 7.8 | 0.00 | 0.00 | 0.00 | 37 | 1011.2 |
| 20260506135004 | 64 | 85 | 2.6 | 7.8 | 0.00 | 0.00 | 0.00 | 38 | 1011.0 |
| 20260506134504 | 67 | 217 | 0.9 | 3.5 | 0.00 | 0.00 | 0.00 | 35 | 1011.1 |
| 20260506134004 | 64 | 305 | 1.7 | 5.2 | 0.00 | 0.00 | 0.00 | 36 | 1011.1 |
| 20260506133504 | 63 | 343 | 2.6 | 5.2 | 0.00 | 0.00 | 0.00 | 37 | 1011.1 |
| 20260506133025 | 64 | 352 | 2.6 | 5.2 | 0.00 | 0.00 | 0.00 | 37 | 1011.3 |
| 20260506132504 | 65 | 287 | 2.6 | 5.2 | 0.00 | 0.00 | 0.00 | 36 | 1011.4 |
| 20260506132025 | 64 | 278 | 2.6 | 5.2 | 0.00 | 0.00 | 0.00 | 39 | 1011.4 |
| 20260506131504 | 63 | 291 | 2.6 | 5.2 | 0.00 | 0.00 | 0.00 | 40 | 1011.5 |
| 20260506131004 | 63 | 326 | 2.6 | 5.2 | 0.00 | 0.00 | 0.00 | 40 | 1011.5 |
| 20260506130504 | 63 | 330 | 1.7 | 3.5 | 0.00 | 0.00 | 0.00 | 41 | 1011.5 |
| 20260506130025 | 64 | 239 | 1.7 | 5.2 | 0.00 | 0.00 | 0.00 | 40 | 1011.3 |
| 20260506125525 | 64 | 229 | 1.7 | 6.1 | 0.00 | 0.00 | 0.00 | 40 | 1011.7 |
| 20260506125004 | 63 | 240 | 1.7 | 6.1 | 0.00 | 0.00 | 0.00 | 41 | 1011.6 |
| 20260506124504 | 62 | 313 | 2.6 | 7.0 | 0.00 | 0.00 | 0.00 | 41 | 1011.5 |
| 20260506124004 | 61 | 2 | 2.6 | 7.0 | 0.00 | 0.00 | 0.00 | 43 | 1011.6 |
| 20260506123504 | 63 | 308 | 2.6 | 7.0 | 0.00 | 0.00 | 0.00 | 43 | 1011.7 |
| 20260506123004 | 60 | 290 | 2.6 | 6.1 | 0.00 | 0.00 | 0.00 | 44 | 1011.7 |
| 20260506122504 | 62 | 347 | 1.7 | 6.1 | 0.00 | 0.00 | 0.00 | 43 | 1011.9 |
| 20260506122025 | 61 | 345 | 2.6 | 6.1 | 0.00 | 0.00 | 0.00 | 44 | 1011.9 |
| 20260506121504 | 60 | 334 | 2.6 | 5.2 | 0.00 | 0.00 | 0.00 | 45 | 1011.9 |
| 20260506121004 | 60 | 335 | 2.6 | 5.2 | 0.00 | 0.00 | 0.00 | 45 | 1012.1 |
| 20260506120504 | 60 | 21 | 2.6 | 5.2 | 0.00 | 0.00 | 0.00 | 45 | 1012.0 |
| 20260506120004 | 61 | 66 | 2.6 | 6.1 | 0.00 | 0.00 | 0.00 | 44 | 1012.2 |
| 20260506115504 | 62 | 54 | 2.6 | 6.1 | 0.00 | 0.00 | 0.00 | 44 | 1012.2 |
| 20260506115004 | 61 | 27 | 2.6 | 7.0 | 0.00 | 0.00 | 0.00 | 46 | 1012.2 |
| 20260506114504 | 60 | 34 | 2.6 | 7.0 | 0.00 | 0.00 | 0.00 | 46 | 1012.5 |
| 20260506114004 | 61 | 163 | 1.7 | 5.2 | 0.00 | 0.00 | 0.00 | 45 | 1012.1 |
| 20260506113525 | 61 | 170 | 2.6 | 7.0 | 0.00 | 0.00 | 0.00 | 46 | 1012.1 |
| 20260506113004 | 59 | 135 | 2.6 | 7.0 | 0.00 | 0.00 | 0.00 | 48 | 1012.6 |
| 20260506112504 | 58 | 64 | 1.7 | 6.1 | 0.00 | 0.00 | 0.00 | 48 | 1012.5 |
| 20260506112004 | 59 | 66 | 2.6 | 6.1 | 0.00 | 0.00 | 0.00 | 48 | 1012.3 |
| 20260506111504 | 60 | 78 | 2.6 | 7.0 | 0.00 | 0.00 | 0.00 | 47 | 1012.5 |
| 20260506111004 | 58 | 85 | 2.6 | 7.0 | 0.00 | 0.00 | 0.00 | 48 | 1012.5 |
| 20260506110504 | 59 | 129 | 1.7 | 7.0 | 0.00 | 0.00 | 0.00 | 48 | 1012.7 |
| 20260506110025 | 58 | 136 | 1.7 | 5.2 | 0.00 | 0.00 | 0.00 | 49 | 1012.5 |
| 20260506105525 | 58 | 60 | 2.6 | 7.8 | 0.00 | 0.00 | 0.00 | 50 | 1012.5 |
| 20260506105004 | 59 | 101 | 2.6 | 7.8 | 0.00 | 0.00 | 0.00 | 48 | 1012.5 |
| 20260506104504 | 59 | 149 | 2.6 | 6.1 | 0.00 | 0.00 | 0.00 | 48 | 1012.6 |
| 20260506104025 | 59 | 108 | 3.5 | 8.7 | 0.00 | 0.00 | 0.00 | 49 | 1012.6 |
| 20260506103525 | 58 | 78 | 3.5 | 8.7 | 0.00 | 0.00 | 0.00 | 48 | 1012.7 |
| 20260506103004 | 59 | 68 | 2.6 | 7.0 | 0.00 | 0.00 | 0.00 | 49 | 1012.6 |
| 20260506102504 | 59 | 38 | 1.7 | 7.8 | 0.00 | 0.00 | 0.00 | 49 | 1012.7 |
| 20260506102025 | 58 | 38 | 2.6 | 7.8 | 0.00 | 0.00 | 0.00 | 50 | 1012.6 |
| 20260506101504 | 59 | 43 | 1.7 | 7.8 | 0.00 | 0.00 | 0.00 | 49 | 1012.9 |
| 20260506101004 | 58 | 67 | 2.6 | 6.1 | 0.00 | 0.00 | 0.00 | 52 | 1012.7 |
| 20260506100503 | 58 | 87 | 2.6 | 6.1 | 0.00 | 0.00 | 0.00 | 53 | 1012.7 |
| 20260506100004 | 58 | 82 | 2.6 | 6.1 | 0.00 | 0.00 | 0.00 | 51 | 1012.9 |
| 20260506095504 | 56 | 63 | 3.5 | 7.8 | 0.00 | 0.00 | 0.00 | 54 | 1013.1 |
| 20260506095025 | 56 | 59 | 3.5 | 7.8 | 0.00 | 0.00 | 0.00 | 57 | 1012.9 |
| 20260506094504 | 56 | 82 | 3.5 | 7.8 | 0.00 | 0.00 | 0.00 | 55 | 1012.8 |
| 20260506094004 | 56 | 76 | 4.3 | 9.6 | 0.00 | 0.00 | 0.00 | 56 | 1012.7 |
| 20260506093504 | 55 | 62 | 4.3 | 9.6 | 0.00 | 0.00 | 0.00 | 55 | 1012.9 |
| 20260506093004 | 56 | 72 | 4.3 | 9.6 | 0.00 | 0.00 | 0.00 | 58 | 1012.9 |
| 20260506092503 | 55 | 75 | 5.2 | 9.6 | 0.00 | 0.00 | 0.00 | 58 | 1012.8 |
| 20260506092024 | 55 | 76 | 5.2 | 9.6 | 0.00 | 0.00 | 0.00 | 57 | 1012.9 |
| 20260506091524 | 55 | 68 | 4.3 | 9.6 | 0.00 | 0.00 | 0.00 | 59 | 1012.9 |
| 20260506091004 | 55 | 62 | 4.3 | 8.7 | 0.00 | 0.00 | 0.00 | 60 | 1012.9 |
| 20260506090504 | 54 | 59 | 4.3 | 8.7 | 0.00 | 0.00 | 0.00 | 61 | 1013.0 |
| 20260506090004 | 55 | 71 | 3.5 | 8.7 | 0.00 | 0.00 | 0.00 | 60 | 1012.9 |
| 20260506085504 | 55 | 87 | 3.5 | 11.3 | 0.00 | 0.00 | 0.00 | 60 | 1012.9 |
| 20260506085004 | 54 | 76 | 3.5 | 11.3 | 0.00 | 0.00 | 0.00 | 61 | 1012.9 |
| 20260506084504 | 54 | 66 | 2.6 | 7.0 | 0.00 | 0.00 | 0.00 | 63 | 1012.9 |
| 20260506084004 | 54 | 52 | 2.6 | 7.0 | 0.00 | 0.00 | 0.00 | 64 | 1013.0 |
| 20260506083504 | 53 | 49 | 3.5 | 7.8 | 0.00 | 0.00 | 0.00 | 66 | 1013.0 |
| 20260506083004 | 53 | 52 | 4.3 | 7.8 | 0.00 | 0.00 | 0.00 | 67 | 1012.9 |
| 20260506082503 | 52 | 56 | 3.5 | 7.8 | 0.00 | 0.00 | 0.00 | 66 | 1012.8 |
| 20260506082004 | 52 | 63 | 3.5 | 7.0 | 0.00 | 0.00 | 0.00 | 67 | 1012.9 |
| 20260506081504 | 52 | 43 | 3.5 | 7.0 | 0.00 | 0.00 | 0.00 | 66 | 1013.0 |
| 20260506081025 | 52 | 44 | 2.6 | 7.0 | 0.00 | 0.00 | 0.00 | 66 | 1012.9 |
| 20260506080503 | 52 | 61 | 2.6 | 7.8 | 0.00 | 0.00 | 0.00 | 67 | 1012.9 |
| 20260506073503 | 50 | 43 | 2.6 | 6.1 | 0.00 | 0.00 | 0.00 | 70 | 1013.0 |
| 20260506073004 | 50 | 46 | 3.5 | 6.1 | 0.00 | 0.00 | 0.00 | 70 | 1012.9 |
| 20260506072504 | 49 | 53 | 3.5 | 6.1 | 0.00 | 0.00 | 0.00 | 72 | 1012.9 |
| 20260506072003 | 49 | 62 | 3.5 | 6.1 | 0.00 | 0.00 | 0.00 | 72 | 1012.8 |
| 20260506071525 | 49 | 58 | 2.6 | 6.1 | 0.00 | 0.00 | 0.00 | 72 | 1012.8 |
| 20260506071003 | 49 | 57 | 2.6 | 6.1 | 0.00 | 0.00 | 0.00 | 72 | 1012.9 |
| 20260506070503 | 48 | 49 | 3.5 | 6.1 | 0.00 | 0.00 | 0.00 | 73 | 1012.9 |
| 20260506062004 | 49 | 49 | 2.6 | 6.1 | 0.00 | 0.00 | 0.00 | 73 | 1012.5 |
| 20260506061504 | 48 | 62 | 2.6 | 6.1 | 0.00 | 0.00 | 0.00 | 74 | 1012.6 |
| 20260506061003 | 48 | 63 | 2.6 | 6.1 | 0.00 | 0.00 | 0.00 | 73 | 1012.2 |
| 20260506060504 | 48 | 55 | 2.6 | 6.1 | 0.00 | 0.00 | 0.00 | 74 | 1012.1 |
| 20260506051024 | 46 | 51 | 3.5 | 7.0 | 0.00 | 0.00 | 0.00 | 78 | 1012.0 |
| 20260506050525 | 46 | 51 | 3.5 | 7.0 | 0.00 | 0.00 | 0.00 | 78 | 1012.0 |
| 20260506045004 | 46 | 42 | 3.5 | 7.0 | 0.00 | 0.00 | 0.00 | 78 | 1011.9 |
| 20260506044503 | 46 | 49 | 3.5 | 7.0 | 0.00 | 0.00 | 0.00 | 79 | 1011.7 |
| 20260506044004 | 46 | 39 | 3.5 | 7.0 | 0.00 | 0.00 | 0.00 | 79 | 1011.8 |
| 20260506043503 | 46 | 39 | 3.5 | 7.0 | 0.00 | 0.00 | 0.00 | 80 | 1011.6 |
| 20260506043004 | 46 | 50 | 2.6 | 6.1 | 0.00 | 0.00 | 0.00 | 80 | 1011.9 |
| 20260506042503 | 46 | 47 | 2.6 | 7.0 | 0.00 | 0.00 | 0.00 | 80 | 1011.7 |
| 20260506042003 | 46 | 48 | 2.6 | 7.0 | 0.00 | 0.00 | 0.00 | 80 | 1011.8 |
| 20260506041503 | 46 | 51 | 2.6 | 7.0 | 0.00 | 0.00 | 0.00 | 80 | 1011.8 |
| 20260506041003 | 46 | 44 | 2.6 | 7.0 | 0.00 | 0.00 | 0.00 | 80 | 1011.8 |
| 20260506040504 | 46 | 37 | 2.6 | 6.1 | 0.00 | 0.00 | 0.00 | 80 | 1012.0 |
| 20260506040004 | 46 | 44 | 2.6 | 6.1 | 0.00 | 0.00 | 0.00 | 80 | 1012.0 |
| 20260506035504 | 46 | 47 | 3.5 | 6.1 | 0.00 | 0.00 | 0.00 | 80 | 1011.9 |
| 20260506035004 | 46 | 48 | 2.6 | 6.1 | 0.00 | 0.00 | 0.00 | 80 | 1011.9 |
| 20260506034524 | 46 | 51 | 2.6 | 6.1 | 0.00 | 0.00 | 0.00 | 80 | 1011.9 |
| 20260506034004 | 46 | 53 | 2.6 | 6.1 | 0.00 | 0.00 | 0.00 | 80 | 1012.0 |
| 20260506033503 | 46 | 56 | 2.6 | 7.0 | 0.00 | 0.00 | 0.00 | 79 | 1012.0 |
| 20260506033004 | 46 | 56 | 2.6 | 7.0 | 0.00 | 0.00 | 0.00 | 79 | 1012.0 |
| 20260506032503 | 46 | 55 | 2.6 | 6.1 | 0.00 | 0.00 | 0.00 | 78 | 1012.0 |
| 20260506032004 | 47 | 54 | 3.5 | 7.0 | 0.00 | 0.00 | 0.00 | 78 | 1011.8 |
| 20260506031525 | 47 | 56 | 3.5 | 7.0 | 0.00 | 0.00 | 0.00 | 77 | 1012.2 |
| 20260506031003 | 47 | 48 | 3.5 | 7.0 | 0.00 | 0.00 | 0.00 | 77 | 1012.0 |
| 20260506030504 | 47 | 45 | 2.6 | 7.0 | 0.00 | 0.00 | 0.00 | 76 | 1012.0 |
| 20260506030004 | 47 | 52 | 3.5 | 6.1 | 0.00 | 0.00 | 0.00 | 76 | 1012.1 |
| 20260506025503 | 47 | 47 | 2.6 | 6.1 | 0.00 | 0.00 | 0.00 | 76 | 1012.2 |
| 20260506025004 | 47 | 38 | 1.7 | 5.2 | 0.00 | 0.00 | 0.00 | 75 | 1012.0 |
| 20260506024503 | 48 | 42 | 1.7 | 5.2 | 0.00 | 0.00 | 0.00 | 75 | 1012.1 |
| 20260506024003 | 48 | 53 | 1.7 | 5.2 | 0.00 | 0.00 | 0.00 | 75 | 1012.3 |
| 20260506023503 | 48 | 54 | 2.6 | 6.1 | 0.00 | 0.00 | 0.00 | 74 | 1012.1 |
| 20260506023003 | 48 | 52 | 2.6 | 6.1 | 0.00 | 0.00 | 0.00 | 74 | 1012.0 |
| 20260506022504 | 48 | 52 | 2.6 | 6.1 | 0.00 | 0.00 | 0.00 | 73 | 1012.3 |
| 20260506022003 | 48 | 53 | 1.7 | 5.2 | 0.00 | 0.00 | 0.00 | 73 | 1012.1 |
| 20260506021503 | 49 | 61 | 1.7 | 3.5 | 0.00 | 0.00 | 0.00 | 72 | 1012.3 |
| 20260506021003 | 49 | 62 | 1.7 | 5.2 | 0.00 | 0.00 | 0.00 | 71 | 1012.3 |
| 20260506020503 | 49 | 61 | 1.7 | 5.2 | 0.00 | 0.00 | 0.00 | 70 | 1012.1 |
| 20260506020024 | 49 | 56 | 1.7 | 3.5 | 0.00 | 0.00 | 0.00 | 69 | 1012.1 |
| 20260506015503 | 50 | 53 | 1.7 | 2.6 | 0.00 | 0.00 | 0.00 | 68 | 1012.2 |
| 20260506015004 | 50 | 59 | 1.7 | 3.5 | 0.00 | 0.00 | 0.00 | 68 | 1012.2 |
| 20260506014504 | 50 | 48 | 1.7 | 3.5 | 0.00 | 0.00 | 0.00 | 68 | 1012.2 |
| 20260506014024 | 50 | 43 | 1.7 | 6.1 | 0.00 | 0.00 | 0.00 | 68 | 1012.3 |
| 20260506013503 | 50 | 54 | 1.7 | 6.1 | 0.00 | 0.00 | 0.00 | 68 | 1012.2 |
| 20260506013024 | 50 | 61 | 1.7 | 5.2 | 0.00 | 0.00 | 0.00 | 68 | 1012.2 |
| 20260506012503 | 50 | 50 | 1.7 | 5.2 | 0.00 | 0.00 | 0.00 | 68 | 1012.2 |
| 20260506012003 | 50 | 41 | 1.7 | 3.5 | 0.00 | 0.00 | 0.00 | 68 | 1012.1 |
| 20260506011503 | 50 | 46 | 1.7 | 3.5 | 0.00 | 0.00 | 0.00 | 68 | 1012.3 |
| 20260506011003 | 50 | 52 | 1.7 | 3.5 | 0.00 | 0.00 | 0.00 | 68 | 1012.6 |
| 20260506010504 | 50 | 49 | 1.7 | 3.5 | 0.00 | 0.00 | 0.00 | 68 | 1012.5 |
| 20260506010003 | 50 | 51 | 1.7 | 5.2 | 0.00 | 0.00 | 0.00 | 68 | 1012.7 |
| 20260506005504 | 50 | 50 | 2.6 | 5.2 | 0.00 | 0.00 | 0.00 | 68 | 1012.7 |
| 20260506005024 | 50 | 52 | 1.7 | 3.5 | 0.00 | 0.00 | 0.00 | 68 | 1012.5 |
| 20260506004504 | 50 | 48 | 1.7 | 3.5 | 0.00 | 0.00 | 0.00 | 67 | 1012.7 |
| 20260506004003 | 50 | 40 | 1.7 | 3.5 | 0.00 | 0.00 | 0.00 | 67 | 1012.8 |
| 20260506003504 | 50 | 43 | 1.7 | 5.2 | 0.00 | 0.00 | 0.00 | 66 | 1012.8 |